Flag Weather past 2 weeks in Peoria, Illinois, U.S.A.

Now
37 °F

Mostly cloudy.


Feels Like: 29 °F
Forecast: 36 / 54 °F
Wind: 13 mph from Southeast

Location: Greater Peoria Regional Airport

Current Time: Nov 21, 2014 at 6:38:31 PM

Latest Report: Nov 21, 2014 at 5:54 PM


Visibility: 10 mi

Pressure: 30.31 "Hg

Humidity: 36%

Dew point: 12 °F

Location of PeoriaLocation

Historic Weather in Peoria — Graph

°F

Peoria temperature yesterday

Maximum temperature yesterday: 34 °F (at 1:54 PM)
Minimum temperature yesterday: 19 °F (at 5:54 AM)
Average temperature yesterday: 25 °F

Past Weeks' High & Low Weather Summary

 TemperatureHumidityPressure
High68 °F (Nov 10, 1:54 PM)85% (Nov 16, 5:54 AM)30.49 "Hg (Nov 16, 5:54 AM)
Low12 °F (Nov 18, 4:54 AM)26% (Nov 21, 1:54 PM)29.48 "Hg (Nov 10, 1:54 PM)
Average31 °F61%30.13 "Hg
* Reported Nov 6 4:54 PM — Nov 21 4:54 PM, Peoria, Weather by CustomWeather, © 2014

Note: Actual official high and low records may vary slightly from our data, if they occured in-between our weather recording intervals... More about our weather records

Advertising

Peoria weather history for previous 24 hours

 ConditionsComfort  
Time TempWeatherWind HumidityBarometerVisibility
4:54 PM
Nov 21
36 °FPassing clouds.7 mph34%30.32 "Hg10 mi
3:54 PM36 °FScattered clouds.8 mph32%30.33 "Hg10 mi
2:54 PM38 °FSunny.12 mph27%30.34 "Hg10 mi
1:54 PM38 °FSunny.12 mph26%30.36 "Hg10 mi
12:54 PM35 °FSunny.10 mph29%30.40 "Hg10 mi
11:54 AM32 °FSunny.10 mph33%30.43 "Hg10 mi
10:54 AM29 °FSunny.10 mph39%30.46 "Hg10 mi
9:54 AM25 °FSunny.10 mph46%30.49 "Hg10 mi
8:54 AM21 °FSunny.10 mph55%30.48 "Hg10 mi
7:54 AM18 °FSunny.6 mph59%30.47 "Hg10 mi
6:54 AM15 °FSunny.6 mph64%30.46 "Hg10 mi
5:54 AM14 °FClear.No wind67%30.45 "Hg10 mi
4:54 AM14 °FClear.8 mph67%30.44 "Hg10 mi
3:54 AM14 °FClear.6 mph67%30.43 "Hg10 mi
2:54 AM15 °FClear.3 mph67%30.43 "Hg10 mi
1:54 AM17 °FClear.No wind64%30.42 "Hg10 mi
12:54 AM18 °FClear.No wind62%30.40 "Hg10 mi
11:54 PM
Nov 20
19 °FClear.3 mph59%30.39 "Hg10 mi
10:54 PM20 °FClear.No wind60%30.36 "Hg10 mi
9:54 PM21 °FClear.3 mph57%30.34 "Hg10 mi
8:54 PM22 °FClear.No wind55%30.32 "Hg10 mi
7:54 PM23 °FClear.3 mph53%30.31 "Hg10 mi
6:54 PM25 °FClear.5 mph50%30.29 "Hg10 mi
Weather by CustomWeather, © 2014

See weather overviewHow to use our weather pages